EW5804 Weather Reports


Display with metric or nautical units.
time (UTC)temp
F
wind
direction
speed
MPH
gust
MPH
rain 1hr
in
rain 24hr
in
rain mn
in
humidity
%
barometer
mb
20260508104931 45 256 2.0 3.0 0.00 0.46 0.00 92 1015.7
20260508104426 45 255 2.0 3.0 0.00 0.46 0.00 91 1015.7
20260508103933 45 255 2.0 3.0 0.00 0.47 0.00 92 1015.7
20260508103414 45 256 2.0 3.0 0.00 0.47 0.00 91 1015.6
20260508102908 44 255 2.0 3.0 0.00 0.47 0.00 91 1015.6
20260508102403 44 255 2.0 3.0 0.00 0.47 0.00 91 1015.5
20260508101856 44 255 1.0 2.0 0.00 0.47 0.00 91 1015.5
20260508101350 44 255 0.0 2.0 0.00 0.48 0.00 91 1015.5
20260508100857 44 255 0.0 1.0 0.00 0.48 0.00 91 1015.3
20260508100338 44 255 1.0 2.0 0.00 0.48 0.00 91 1015.1
20260508095831 44 255 0.0 2.0 0.00 0.48 0.00 91 1015.1
20260508095325 44 255 0.0 1.0 0.00 0.49 0.00 91 1015.0
20260508094820 44 255 1.0 2.0 0.00 0.50 0.00 91 1015.0
20260508094534 44 255 1.0 2.0 0.00 0.51 0.00 91 1014.9
20260508093808 44 255 1.0 2.0 0.00 0.52 0.00 91 1014.7
20260508093302 44 255 1.0 2.0 0.00 0.53 0.00 91 1014.7
20260508092756 45 255 0.0 1.0 0.00 0.54 0.00 91 1014.8
20260508092250 44 255 0.0 1.0 0.00 0.55 0.00 91 1014.7
20260508091744 45 255 0.0 1.0 0.00 0.56 0.00 91 1014.7
20260508091549 45 255 0.0 0.0 0.00 0.56 0.00 91 1014.5
20260508091432 45 256 0.0 2.0 0.00 0.56 0.00 91 1014.6
20260508090226 45 255 0.0 2.0 0.00 0.56 0.00 91 1014.5
20260508085720 45 255 1.0 4.0 0.00 0.56 0.00 91 1014.4
20260508085214 45 255 1.0 4.0 0.00 0.56 0.00 91 1014.5
20260508084931 45 256 1.0 2.0 0.00 0.56 0.00 91 1014.3
20260508084202 45 257 1.0 2.0 0.00 0.56 0.00 91 1014.3
20260508083657 45 257 1.0 2.0 0.00 0.57 0.00 91 1014.3
20260508083150 45 257 0.0 2.0 0.00 0.58 0.00 91 1014.2
20260508082906 45 257 0.0 2.0 0.00 0.58 0.00 91 1014.1
20260508082138 45 257 0.0 2.0 0.00 0.58 0.00 91 1014.1
20260508081632 45 257 0.0 1.0 0.00 0.58 0.00 91 1013.9
20260508081125 46 257 0.0 0.0 0.00 0.58 0.00 91 1013.9
20260508080841 46 257 0.0 2.0 0.00 0.58 0.00 91 1014.0
20260508080114 46 257 1.0 2.0 0.00 0.58 0.00 91 1014.0
20260508075608 46 257 1.0 2.0 0.00 0.58 0.00 91 1014.0
20260508075101 46 256 1.0 1.0 0.00 0.58 0.00 91 1013.9
20260508074556 46 256 1.0 3.0 0.00 0.58 0.00 91 1013.8
20260508074050 46 257 1.0 3.0 0.00 0.58 0.00 91 1013.9
20260508073556 46 269 1.0 2.0 0.00 0.58 0.00 91 1013.7
20260508073038 46 269 1.0 2.0 0.00 0.58 0.00 91 1013.7
20260508072532 46 269 1.0 3.0 0.00 0.58 0.00 91 1013.4
20260508072027 46 267 1.0 3.0 0.00 0.58 0.00 91 1013.4
20260508071746 46 271 1.0 2.0 0.00 0.58 0.00 91 1013.5
20260508071015 46 271 1.0 2.0 0.00 0.58 0.00 91 1013.4
20260508070507 46 271 1.0 2.0 0.00 0.58 0.00 91 1013.3
20260508070002 46 271 1.0 2.0 0.00 0.58 0.00 91 1013.3
20260508065722 46 271 1.0 2.0 0.00 0.58 0.00 91 1013.2
20260508065002 46 271 1.0 2.0 0.00 0.58 0.00 91 1013.2
20260508064516 47 271 1.0 3.0 0.00 0.58 0.00 91 1013.3
20260508063959 47 271 1.0 3.0 0.00 0.58 0.00 91 1013.4
20260508063500 47 271 1.0 2.0 0.00 0.58 0.00 91 1013.3
20260508062959 47 271 1.0 2.0 0.00 0.58 0.00 91 1013.2
20260508062500 47 271 1.0 2.0 0.00 0.58 0.00 91 1013.1
20260508062000 47 271 1.0 2.0 0.00 0.58 0.00 91 1013.2
20260508061500 47 271 1.0 2.0 0.00 0.58 0.00 91 1013.2
20260508060959 47 271 1.0 1.0 0.00 0.58 0.00 91 1013.0
20260508060458 47 271 1.0 1.0 0.00 0.59 0.00 91 1013.0
20260508055959 47 271 1.0 2.0 0.00 0.60 0.00 91 1013.0
20260508055457 47 271 1.0 2.0 0.00 0.60 0.00 91 1012.9
20260508054956 47 271 1.0 2.0 0.00 0.60 0.00 91 1012.8
20260508054453 47 271 0.0 1.0 0.00 0.60 0.00 91 1012.8
20260508053954 47 271 0.0 1.0 0.00 0.61 0.00 91 1012.8
20260508053453 47 272 1.0 2.0 0.00 0.61 0.00 91 1012.9
20260508052947 47 271 1.0 3.0 0.00 0.61 0.00 91 1012.9
20260508052710 47 273 1.0 3.0 0.00 0.61 0.00 91 1012.9
20260508052205 47 271 1.0 3.0 0.00 0.61 0.00 90 1012.9
20260508051447 47 271 1.0 3.0 0.00 0.61 0.00 91 1012.9
20260508050945 47 271 1.0 2.0 0.00 0.62 0.00 91 1012.9
20260508050446 48 271 1.0 2.0 0.00 0.62 0.00 90 1012.9
20260508045946 48 271 1.0 3.0 0.00 0.62 0.00 90 1013.0
20260508045446 48 271 2.0 3.0 0.00 0.63 0.00 90 1013.1
20260508044947 48 271 2.0 3.0 0.00 0.63 0.00 90 1013.0
20260508044446 48 272 2.0 3.0 0.00 0.63 0.00 90 1013.0
20260508043945 48 259 2.0 3.0 0.00 0.63 0.00 90 1013.0
20260508043445 48 260 2.0 3.0 0.00 0.63 0.00 90 1013.0
20260508042945 48 260 1.0 3.0 0.00 0.63 0.00 90 1013.0
20260508042446 48 260 1.0 3.0 0.00 0.63 0.00 90 1012.9
20260508041945 48 260 1.0 4.0 0.00 0.63 0.00 90 1012.8
20260508041446 48 257 1.0 4.0 0.00 0.63 0.00 90 1012.8
20260508040947 48 255 0.0 2.0 0.00 0.63 0.00 90 1012.7
20260508040707 48 255 0.0 0.0 0.00 0.63 0.00 90 1012.6
20260508040212 49 255 0.0 0.0 0.00 0.63 0.63 90 1012.6
20260508035440 49 255 0.0 0.0 0.00 0.63 0.63 90 1012.6
20260508034933 49 255 0.0 0.0 0.00 0.63 0.63 90 1012.7
20260508034654 49 255 0.0 0.0 0.00 0.63 0.63 90 1012.7
20260508033922 49 255 0.0 0.0 0.00 0.63 0.63 90 1012.7
20260508033415 49 255 0.0 0.0 0.00 0.63 0.63 90 1012.7
20260508032909 49 255 0.0 1.0 0.00 0.63 0.63 90 1012.5
20260508032626 49 255 0.0 2.0 0.00 0.63 0.63 90 1012.5
20260508031857 50 255 1.0 2.0 0.00 0.63 0.63 90 1012.4
20260508031352 50 255 1.0 2.0 0.00 0.63 0.63 90 1012.4
20260508030845 50 255 0.0 1.0 0.00 0.63 0.63 90 1012.3
20260508030341 50 255 0.0 1.0 0.00 0.63 0.63 90 1012.2
20260508025834 50 255 1.0 2.0 0.00 0.63 0.63 90 1012.2
20260508025327 50 255 0.0 2.0 0.00 0.63 0.63 90 1012.3
20260508025041 51 255 1.0 2.0 0.00 0.63 0.63 90 1012.3
20260508024316 51 256 1.0 2.0 0.00 0.63 0.63 90 1012.1
20260508023809 51 255 0.0 2.0 0.00 0.63 0.63 90 1012.1
20260508023303 51 255 1.0 2.0 0.00 0.63 0.63 90 1012.1
20260508022758 51 255 1.0 2.0 0.00 0.63 0.63 90 1012.2
20260508022254 51 255 1.0 2.0 0.00 0.63 0.63 90 1012.2
20260508022011 51 255 1.0 3.0 0.00 0.63 0.63 90 1012.1
20260508021256 51 255 1.0 3.0 0.00 0.63 0.63 90 1012.1
20260508020754 52 256 1.0 4.0 0.00 0.63 0.63 90 1012.1
20260508020512 52 255 1.0 4.0 0.00 0.63 0.63 90 1012.2
20260508015749 52 243 0.0 0.0 0.00 0.63 0.63 89 1012.2
20260508015248 52 242 0.0 0.0 0.00 0.63 0.63 90 1012.0
20260508014748 52 242 0.0 0.0 0.00 0.63 0.63 89 1012.1
20260508014241 52 242 0.0 0.0 0.00 0.63 0.63 89 1012.2
20260508013959 53 242 0.0 2.0 0.00 0.63 0.63 89 1012.2
20260508013235 53 242 0.0 2.0 0.00 0.63 0.63 90 1011.9
20260508013219 53 242 1.0 3.0 0.00 0.63 0.63 90 1011.9
20260508012237 53 242 1.0 3.0 0.00 0.63 0.63 90 1012.0
20260508011735 53 242 1.0 3.0 0.00 0.63 0.63 89 1011.9
20260508011237 53 241 1.0 3.0 0.00 0.63 0.63 89 1011.7
20260508010735 53 241 1.0 3.0 0.00 0.63 0.63 89 1011.8
20260508010236 53 236 0.0 0.0 0.00 0.63 0.63 90 1011.7
20260508005735 53 236 0.0 0.0 0.00 0.63 0.63 90 1011.5
20260508005236 53 236 0.0 0.0 0.00 0.63 0.63 90 1011.4
20260508004735 53 236 0.0 0.0 0.00 0.63 0.63 90 1011.2
20260508004234 53 236 0.0 0.0 0.00 0.63 0.63 89 1011.2
20260508003729 53 236 0.0 0.0 0.00 0.63 0.63 89 1011.0
20260508003230 53 236 0.0 0.0 0.00 0.63 0.63 89 1011.0
20260508002731 53 236 0.0 0.0 0.00 0.63 0.63 89 1011.0
20260508002229 53 236 0.0 0.0 0.00 0.63 0.63 89 1010.8
20260508001949 54 236 0.0 0.0 0.00 0.63 0.63 89 1010.9
20260508001229 54 236 0.0 0.0 0.00 0.63 0.63 89 1010.8
20260508000731 54 236 0.0 0.0 0.00 0.63 0.63 89 1010.8
20260508000230 54 236 0.0 0.0 0.00 0.63 0.63 89 1010.6
20260507235731 54 236 1.0 2.0 0.00 0.63 0.63 89 1010.8
20260507235229 54 236 1.0 2.0 0.00 0.63 0.63 89 1010.7
20260507234949 54 236 0.0 1.0 0.00 0.63 0.63 89 1010.6
20260507234231 54 236 0.0 1.0 0.00 0.63 0.63 89 1010.5
20260507233729 54 236 0.0 0.0 0.00 0.63 0.63 89 1010.4
20260507233717 54 236 0.0 1.0 0.00 0.63 0.63 89 1010.3
20260507232729 54 236 0.0 1.0 0.00 0.63 0.63 89 1010.5
20260507232717 53 236 0.0 2.0 0.00 0.63 0.63 88 1010.5
20260507232600 54 236 0.0 1.0 0.00 0.63 0.63 89 1010.6
20260507231230 53 236 0.0 2.0 0.01 0.63 0.63 88 1010.4
20260507230724 53 236 0.0 0.0 0.01 0.63 0.63 88 1010.5
20260507230443 53 236 0.0 2.0 0.01 0.63 0.63 88 1010.6
20260507225712 53 236 1.0 2.0 0.03 0.63 0.63 88 1010.8
20260507225206 53 236 1.0 3.0 0.03 0.63 0.63 87 1010.7
20260507224700 53 236 1.0 3.0 0.03 0.63 0.63 87 1010.7
20260507224154 53 236 1.0 4.0 0.04 0.63 0.63 87 1010.6
20260507223702 53 24 1.0 4.0 0.04 0.63 0.63 87 1010.2
20260507223142 53 323 2.0 5.0 0.05 0.63 0.63 86 1010.3
20260507222856 53 20 2.0 5.0 0.05 0.63 0.63 86 1010.2
20260507222130 53 14 2.0 4.0 0.05 0.63 0.63 87 1010.4
20260507221624 54 350 1.0 3.0 0.06 0.63 0.63 87 1010.2
20260507221118 54 350 2.0 4.0 0.07 0.62 0.62 87 1010.3
20260507220613 54 350 2.0 8.0 0.07 0.62 0.62 87 1010.2
20260507220109 54 49 2.0 8.0 0.06 0.61 0.61 87 1010.3
20260507215601 54 47 1.0 5.0 0.05 0.60 0.60 87 1010.4
20260507215054 54 246 0.0 3.0 0.05 0.60 0.60 87 1010.7
20260507214548 54 335 1.0 3.0 0.05 0.60 0.60 86 1010.7
20260507214043 54 350 1.0 3.0 0.04 0.59 0.59 86 1010.7
20260507213536 54 309 1.0 3.0 0.04 0.59 0.59 86 1010.7
20260507213030 54 328 1.0 4.0 0.03 0.58 0.58 86 1010.6
20260507212256 55 359 2.0 8.0 0.03 0.58 0.58 86 1010.6
20260507211513 55 355 2.0 5.0 0.02 0.57 0.57 86 1010.5
20260507211237 55 355 1.0 5.0 0.00 0.55 0.55 87 1010.6
20260507210500 55 270 1.0 3.0 0.00 0.55 0.55 87 1010.4
20260507205956 55 10 1.0 4.0 0.00 0.55 0.55 87 1010.6
20260507205447 55 15 1.0 4.0 0.00 0.55 0.55 87 1010.5
20260507204942 55 3 1.0 3.0 0.00 0.55 0.55 87 1010.3
20260507204436 55 5 1.0 4.0 0.00 0.55 0.55 88 1010.3
20260507203930 55 5 2.0 4.0 0.00 0.55 0.55 87 1010.3
20260507203648 55 52 2.0 6.0 0.00 0.55 0.55 87 1010.2
20260507202918 55 6 2.0 6.0 0.00 0.55 0.55 87 1010.0
20260507202413 55 13 2.0 6.0 0.00 0.55 0.55 88 1010.1
20260507202125 55 13 3.0 7.0 0.00 0.55 0.55 88 1010.3
20260507201401 55 43 3.0 7.0 0.00 0.55 0.55 88 1010.1
20260507200854 55 310 2.0 6.0 0.00 0.55 0.55 88 1010.3
20260507200348 55 9 2.0 6.0 0.00 0.55 0.55 88 1010.2
20260507200105 55 305 2.0 5.0 0.00 0.55 0.55 88 1010.2
20260507195600 55 317 3.0 8.0 0.00 0.55 0.55 87 1010.1
20260507194830 55 30 4.0 8.0 0.00 0.55 0.55 88 1009.9
20260507194325 55 46 3.0 6.0 0.01 0.55 0.55 87 1010.0
20260507193831 55 45 3.0 6.0 0.01 0.55 0.55 87 1010.0
20260507193534 55 53 4.0 7.0 0.01 0.55 0.55 87 1010.1
20260507192806 55 45 4.0 8.0 0.01 0.55 0.55 87 1010.3
20260507192300 55 45 3.0 8.0 0.01 0.55 0.55 86 1010.3
20260507192012 55 39 4.0 9.0 0.01 0.55 0.55 86 1010.2
20260507191248 55 51 4.0 9.0 0.01 0.55 0.55 86 1010.2
20260507190742 55 47 4.0 8.0 0.01 0.55 0.55 86 1010.3
20260507190459 55 36 4.0 7.0 0.01 0.55 0.55 86 1010.5
20260507185730 55 50 4.0 10.0 0.01 0.55 0.55 86 1010.5
20260507185224 54 53 4.0 10.0 0.01 0.55 0.55 86 1010.5
20260507184718 55 30 4.0 9.0 0.01 0.55 0.55 86 1010.4
20260507184212 55 41 3.0 8.0 0.00 0.54 0.54 86 1010.5
20260507183707 54 47 3.0 10.0 0.00 0.54 0.54 85 1010.6
20260507183201 54 25 4.0 10.0 0.00 0.54 0.54 85 1010.8
20260507182915 54 5 4.0 9.0 0.01 0.54 0.54 85 1010.7
20260507182149 54 23 4.0 8.0 0.01 0.54 0.54 86 1010.7
20260507181642 54 38 4.0 10.0 0.01 0.54 0.54 86 1010.7
20260507181136 55 27 4.0 10.0 0.01 0.54 0.54 86 1010.7
20260507180631 55 57 4.0 9.0 0.02 0.54 0.54 87 1010.4
20260507180125 55 49 4.0 9.0 0.03 0.54 0.54 87 1010.1
20260507175618 54 51 3.0 6.0 0.04 0.54 0.54 87 1010.4
20260507175113 54 36 4.0 9.0 0.04 0.54 0.54 87 1010.8
20260507174606 54 22 4.0 9.0 0.04 0.54 0.54 87 1010.8
20260507174059 54 53 4.0 8.0 0.04 0.54 0.54 87 1010.9
20260507173558 54 48 7.0 16.0 0.05 0.54 0.54 87 1011.1
20260507173059 54 24 7.0 16.0 0.05 0.54 0.54 87 1011.2
20260507172559 54 37 7.0 13.0 0.05 0.53 0.53 88 1010.8
20260507172059 54 47 6.0 11.0 0.05 0.53 0.53 88 1011.0
20260507171558 54 56 4.0 11.0 0.06 0.53 0.53 89 1011.2
20260507171059 55 48 3.0 5.0 0.06 0.53 0.53 89 1011.7
20260507170824 54 50 2.0 5.0 0.06 0.52 0.52 89 1012.1
20260507170333 54 49 2.0 4.0 0.05 0.51 0.51 89 1012.5
20260507165556 54 323 2.0 5.0 0.04 0.50 0.50 88 1012.5
20260507165058 54 17 2.0 5.0 0.06 0.50 0.50 88 1012.3
20260507164822 54 22 3.0 6.0 0.06 0.50 0.50 88 1012.0
20260507164543 54 341 3.0 7.0 0.08 0.50 0.50 89 1012.0
20260507163553 54 46 5.0 9.0 0.09 0.49 0.49 88 1011.6
20260507163053 54 7 7.0 14.0 0.12 0.49 0.49 88 1011.8
20260507162814 54 49 9.0 14.0 0.13 0.48 0.48 88 1011.4
20260507162053 54 57 8.0 14.0 0.16 0.48 0.48 88 1011.5
20260507161554 54 46 7.0 12.0 0.16 0.47 0.47 88 1011.7
20260507161316 54 52 6.0 13.0 0.17 0.47 0.47 89 1011.8
20260507160553 54 51 5.0 13.0 0.16 0.46 0.46 89 1011.9
20260507160327 55 50 4.0 11.0 0.16 0.46 0.46 89 1011.8
20260507155549 55 81 3.0 9.0 0.16 0.46 0.46 89 1011.8
20260507155049 55 33 3.0 9.0 0.14 0.44 0.45 89 1011.9
20260507154545 55 41 3.0 7.0 0.14 0.44 0.44 89 1011.7
20260507154042 55 40 3.0 9.0 0.12 0.42 0.42 88 1011.8
20260507153542 55 23 3.0 9.0 0.10 0.40 0.40 88 1011.8
20260507153304 55 62 3.0 6.0 0.07 0.37 0.37 88 1011.8
20260507152539 55 28 7.0 17.0 0.05 0.34 0.35 88 1011.7
20260507152038 55 51 10.0 19.0 0.03 0.32 0.33 88 1011.3
20260507151535 55 39 10.0 19.0 0.02 0.31 0.31 88 1011.1
20260507151301 55 41 9.0 16.0 0.01 0.30 0.30 87 1011.4
20260507150534 55 83 8.0 14.0 0.01 0.30 0.30 87 1011.3
20260507150256 55 56 9.0 15.0 0.01 0.30 0.30 88 1012.0
20260507145535 55 53 9.0 15.0 0.01 0.30 0.30 87 1011.9
20260507145033 55 47 9.0 14.0 0.01 0.30 0.30 88 1012.0
20260507144802 56 45 8.0 15.0 0.01 0.30 0.30 88 1012.0
20260507144032 56 45 7.0 15.0 0.01 0.30 0.30 88 1012.1
20260507143531 56 52 8.0 16.0 0.01 0.30 0.30 88 1011.9
20260507143031 57 43 9.0 16.0 0.01 0.30 0.30 88 1011.9
20260507142530 57 58 8.0 14.0 0.00 0.29 0.30 88 1011.6
20260507142252 57 44 8.0 14.0 0.00 0.29 0.29 88 1011.8
20260507141531 57 88 10.0 16.0 0.00 0.29 0.29 89 1011.6
20260507141033 58 32 11.0 17.0 0.00 0.29 0.29 89 1011.4
20260507140526 58 47 9.0 17.0 0.00 0.29 0.29 89 1011.3
20260507140018 58 50 7.0 14.0 0.00 0.29 0.29 90 1011.3
20260507135513 58 68 7.0 14.0 0.00 0.29 0.29 90 1011.4
20260507135007 58 75 6.0 12.0 0.00 0.29 0.29 89 1011.4
20260507134501 58 42 5.0 10.0 0.00 0.29 0.29 89 1011.5
20260507133956 58 40 4.0 9.0 0.00 0.29 0.29 89 1011.4
20260507133448 58 68 5.0 12.0 0.00 0.29 0.29 89 1011.2
20260507133429 58 4 5.0 12.0 0.00 0.29 0.29 89 1011.4
20260507132437 58 39 4.0 8.0 0.00 0.29 0.29 89 1011.3
20260507131933 58 51 4.0 8.0 0.01 0.29 0.29 89 1011.4
20260507131651 58 48 5.0 9.0 0.01 0.29 0.29 89 1011.3
20260507130919 58 45 6.0 11.0 0.02 0.29 0.29 89 1011.2
20260507130414 58 52 6.0 12.0 0.04 0.29 0.29 89 1011.3
20260507125908 58 75 6.0 13.0 0.04 0.29 0.29 89 1011.4
20260507125401 58 57 8.0 13.0 0.05 0.29 0.29 89 1011.1
20260507124856 58 45 9.0 13.0 0.05 0.29 0.29 89 1011.3
20260507124349 58 55 8.0 14.0 0.06 0.29 0.29 89 1011.2
20260507124104 59 43 5.0 14.0 0.07 0.29 0.29 90 1011.5
20260507123337 60 43 2.0 7.0 0.09 0.29 0.29 90 1011.4
20260507122830 60 263 3.0 8.0 0.10 0.29 0.29 90 1011.5
20260507122325 60 51 5.0 12.0 0.10 0.29 0.29 90 1011.2
20260507121819 60 53 6.0 12.0 0.09 0.28 0.28 90 1011.2
20260507121315 60 80 5.0 11.0 0.09 0.28 0.28 90 1011.0
20260507120808 60 43 4.0 9.0 0.07 0.26 0.27 90 1010.8
20260507120301 60 41 3.0 8.0 0.07 0.25 0.25 90 1011.2
20260507115755 61 40 4.0 10.0 0.06 0.24 0.25 90 1011.3
20260507115249 61 47 5.0 11.0 0.07 0.24 0.24 90 1011.2
20260507114743 61 50 5.0 11.0 0.07 0.24 0.24 90 1011.1
20260507114459 62 56 4.0 11.0 0.06 0.23 0.23 90 1011.1
20260507113733 62 44 3.0 11.0 0.05 0.21 0.22 90 1010.9
20260507113226 62 21 4.0 10.0 0.03 0.19 0.20 90 1011.0
20260507112719 63 72 5.0 13.0 0.03 0.19 0.19 90 1010.8
20260507112213 64 329 3.0 13.0 0.03 0.19 0.19 90 1010.9
20260507111925 66 40 0.0 10.0 0.03 0.19 0.19 91 1010.6
20260507111203 65 219 0.0 2.0 0.04 0.19 0.19 91 1010.5
20260507110658 66 219 0.0 2.0 0.04 0.19 0.19 91 1010.5
20260507110149 65 220 0.0 1.0 0.03 0.18 0.18 91 1010.4
20260507105644 65 219 0.0 1.0 0.04 0.18 0.18 91 1010.5
20260507105406 65 219 0.0 1.0 0.03 0.17 0.17 91 1010.4